Terminal Aerodrome Forecast
Issued by NWS Spokane, WA

Home | Current Version | Previous Version | Text Only | Print | Product List | Glossary On
Versions: 1 2 3 4 5 6 7 8 9 10 11 12 13 14 15 16 17 18 19 20 21 22 23 24 25 26 27 28 29 30 31 32 33 34 35 36 37 38 39 40 41 42 43 44 45 46 47 48 49 50
000
FTUS46 KOTX 201746 CCA
TAFEAT
TAF COR
KEAT 201746Z 2018/2118 VRB03KT 3SM -RASN BR OVC005
     FM202000 VRB03KT 3SM BR VCSH OVC005
     FM202300 30003KT 1SM -RA BR OVC007
     FM210600 30008KT 4SM -RA BR OVC015
     FM211100 30017KT 5SM BR VCSH OVC035=

USA.gov is the U.S. government's official web portal to all federal, state and local government web resources and services.